Regional Weather Roundup
Issued by NWS New Orleans/Baton Rouge, LA

Home | Current Version | Previous Version | Text Only | Print | Product List | Glossary Off
Versions: 1 2 3 4 5 6 7 8 9 10 11 12 13 14 15 16 17 18 19 20 21 22 23 24 25 26 27 28 29 30 31 32 33 34 35 36 37 38 39 40 41 42 43 44 45 46 47 48 49 50

974
ASUS44 KLIX 171005
RWRLIX
NEW ORLEANS REGIONAL WEATHER ROUNDUP
NATIONAL WEATHER SERVICE NEW ORLEANS LA
400 AM CST WED DEC 17 2014

NOTE: "FAIR" INDICATES FEW OR NO CLOUDS BELOW 12,000 FEET WITH NO
      SIGNIFICANT WEATHER AND/OR OBSTRUCTIONS TO VISIBILITY.
      SKY/WX - SKY CONDITION AND SIGNIFICANT WEATHER.
      TMP - AIR TEMPERATURE.     DP    - DEWPOINT TEMPERATURE.
      RH  - RELATIVE HUMIDITY.   PRES  - PRESSURE.
      HI  - HEAT INDEX.          WCI   - WIND CHILL INDEX.

*  THESE STATIONS ARE NOT NWS OR FAA STATIONS AND ARE NOT UNDER
   NWS QUALITY CONTROL.

LAZ038-040-048-061>063-065>067-069-171100-
SOUTHEAST LOUISIANA

CITY           SKY/WX    TMP DP  RH WIND       PRES   REMARKS
N.O. AUDUBON     N/A     50  41  71 MISG        N/A
N.O. INTL ARPT CLEAR     49  38  65 NE12      30.24F
N.O. LAKEFRONT CLEAR     51  40  65 NE16      30.24F
N.O. DOWNTOWN*   N/A     48  36  61 NE6       30.25S
SLIDELL        CLEAR     35  31  85 CALM      30.24F
BATON ROUGE    CLEAR     38  35  89 CALM      30.25S
BOOTHVILLE     CLEAR     53  45  74 NE6       30.23F
BELLE CHASSE   CLEAR     44  39  82 NE6       30.24F
BOGALUSA*        N/A     36  33  90 CALM      30.26S
GALLIANO*      SUNNY     51  42  71 MISG      30.24F
NEW ROADS*       N/A     37  35  94 CALM      30.26S
GONZALES*        N/A     40  38  92 CALM      30.25S
HAMMOND*       CLEAR     36  34  93 CALM      30.26S
HOUMA*         CLEAR     42  39  89 CALM      30.25R
PORT FOURCHON* SUNNY     54  46  76 NE9       30.26F

$$

MSZ070-080>082-171100-
SOUTHERN MISSISSIPPI

CITY           SKY/WX    TMP DP  RH WIND       PRES   REMARKS
MCCOMB         CLEAR     40  34  79 CALM      30.24S
GULFPORT       CLEAR     40  35  83 N3        30.23F HAZE
BILOXI         CLEAR     42  37  83 NE6       30.23F
PASCAGOULA     CLEAR     37  35  92 CALM      30.24F

$$

COASTAL OBSERVATIONS
LAKE AND NEARSHORE STATIONS

STATION/POSITION TIME  TEMP    WIND        PRES    WAVE
                       AIR SEA DIR/SP/G            HT/PER
                 (UTC) (F)     (DEG/KT/KT) (MB)    (FT/S)
PASCAGOULA       1000   44      10/  8/ 10 1023.2
WAVELAND YACHT   1000   46      50/  9/ 12 1022.9
GRAND ISLE       1000   53 63   50/ 11/ 14 1023.8
SOUTHWEST PASS   1000   55                 1023.9
NEW CANAL        1000   51 58   60/ 16/ 19 1023.9
SHELL BEACH      1000   51      40/ 14/ 17 1023.6

OFFSHORE STATIONS

STATION/POSITION TIME  TEMP    WIND        PRES    WAVE
                       AIR SEA DIR/SP/G            HT/PER
                 (UTC) (F)     (DEG/KT/KT) (MB)    (FT/S)
64 S DAUPHIN ISL 1000   60 74   20/ 12/ 16 1023.0

$$




USA.gov is the U.S. government's official web portal to all federal, state and local government web resources and services.